contact:dominique.lefevre@mio.osupytheas.fr, maurice.libes@osupytheas.fr, didier.mallarino@osupytheas.fr
Project:EMSO http://www.emso-fr.org/EMSO-France
Depth: 2436.0 m
Title:EMSO Ligure Ouest : Data MII capteur AQUADOPP
Date,Latitude,Longitude,X_East,Y_North,Z_Up,Amplitude_X,Amplitude_Y,Amplitude_Z,Batterie,SoundSpeed,Heading,Pitch,Roll,Pressure,TIS,Speed,Direction
, degrees North, degrees East, m.s-1, m.s-1,m.s-1, 1, 1, 1, Volt, m.s-1, degree, degree, degree, dbar, degree_C, m.s-1, degree
2023-06-12T00:04:03,42.805,6.029,0.003,0.0,-0.024,101.0,101.0,100.0,13.4,1505.1,320.4,-0.8,1.8,2471.978,13.27,0.003,90.0
2023-06-12T00:07:03,42.805,6.029,0.029,0.006,-0.011,101.0,101.0,100.0,13.4,1505.2,334.7,-0.8,1.8,2471.885,13.28,0.029,78.3
2023-06-12T00:10:03,42.805,6.029,0.014,0.002,0.017,100.0,103.0,100.0,13.4,1505.2,330.0,-0.8,1.8,2471.808,13.28,0.014,81.9
2023-06-12T00:13:03,42.805,6.029,0.04,0.0,0.0,101.0,102.0,101.0,13.4,1505.2,326.0,-0.7,1.8,2471.696,13.28,0.04,90.0
2023-06-12T00:16:03,42.805,6.029,0.02,-0.006,0.014,101.0,103.0,101.0,13.4,1505.2,346.2,-0.8,1.8,2471.65,13.28,0.02,106.7
2023-06-12T00:19:03,42.805,6.029,0.03,-0.009,0.002,100.0,101.0,101.0,13.4,1505.2,344.9,-0.8,1.8,2471.604,13.28,0.031,106.7
2023-06-12T00:22:03,42.805,6.029,0.04,-0.023,0.0,99.0,102.0,100.0,13.4,1505.2,342.3,-0.8,1.8,2471.61,13.28,0.046,119.9
2023-06-12T00:25:03,42.805,6.029,0.04,-0.011,-0.019,101.0,101.0,100.0,13.3,1505.2,326.3,-0.8,1.9,2471.543,13.29,0.041,105.4
2023-06-12T00:28:03,42.805,6.029,0.052,0.001,0.005,100.0,103.0,101.0,13.4,1505.2,328.3,-0.8,1.8,2471.553,13.29,0.052,88.9
2023-06-12T00:31:03,42.805,6.029,0.046,-0.01,0.004,101.0,102.0,102.0,13.4,1505.2,328.7,-0.8,1.8,2471.518,13.29,0.047,102.3
2023-06-12T00:34:03,42.805,6.029,0.046,-0.053,-0.029,100.0,100.0,102.0,13.4,1505.2,333.4,-0.7,1.8,2471.506,13.29,0.07,139.0
2023-06-12T00:37:03,42.805,6.029,0.026,-0.015,-0.031,101.0,101.0,100.0,13.3,1505.2,339.4,-0.8,1.8,2471.52,13.29,0.03,120.0
2023-06-12T00:40:03,42.805,6.029,0.043,0.0,0.0,101.0,103.0,100.0,13.4,1505.2,322.5,-0.8,1.8,2471.547,13.29,0.043,90.0
2023-06-12T00:43:03,42.805,6.029,0.019,-0.006,-0.023,100.0,102.0,100.0,13.4,1505.2,324.0,-0.8,1.8,2471.492,13.29,0.019,107.5
2023-06-12T00:46:03,42.805,6.029,0.038,-0.01,-0.021,101.0,100.0,100.0,13.3,1505.2,336.0,-0.8,1.8,2471.477,13.29,0.039,104.7
2023-06-12T00:49:03,42.805,6.029,0.045,-0.028,0.001,102.0,102.0,100.0,13.4,1505.2,333.4,-0.8,1.8,2471.495,13.29,0.053,121.9
2023-06-12T00:52:03,42.805,6.029,0.0,0.008,0.012,100.0,101.0,100.0,13.4,1505.2,331.3,-0.7,1.8,2471.465,13.29,0.008,0.0
2023-06-12T00:55:03,42.805,6.029,0.035,0.003,-0.011,100.0,102.0,101.0,13.4,1505.2,327.4,-0.7,1.8,2471.506,13.29,0.035,85.1
2023-06-12T00:58:03,42.805,6.029,0.03,-0.029,0.004,100.0,103.0,100.0,13.4,1505.2,346.8,-0.7,1.8,2471.518,13.29,0.041,134.0
2023-06-12T01:04:03,42.805,6.029,0.045,-0.038,-0.024,101.0,103.0,102.0,13.3,1505.2,338.0,-0.7,1.8,2471.514,13.28,0.058,130.2
2023-06-12T01:07:03,42.805,6.029,0.012,-0.01,-0.052,99.0,101.0,101.0,13.3,1505.2,330.9,-0.8,1.8,2471.518,13.28,0.015,129.8
2023-06-12T01:10:03,42.805,6.029,0.026,-0.011,-0.016,100.0,102.0,100.0,13.4,1505.2,344.2,-0.8,1.9,2471.53,13.28,0.028,112.9
2023-06-12T01:13:03,42.805,6.029,0.031,0.013,0.011,101.0,102.0,100.0,13.4,1505.2,336.0,-0.8,1.8,2471.508,13.29,0.033,67.3
2023-06-12T01:16:03,42.805,6.029,0.021,-0.013,-0.024,101.0,103.0,100.0,13.4,1505.2,338.2,-0.7,1.8,2471.522,13.29,0.024,121.8
2023-06-12T01:19:03,42.805,6.029,0.034,0.001,0.011,102.0,101.0,101.0,13.3,1505.2,331.0,-0.7,1.8,2471.504,13.29,0.034,88.3
2023-06-12T01:22:03,42.805,6.029,0.032,-0.007,-0.013,101.0,101.0,102.0,13.4,1505.2,337.4,-0.8,1.8,2471.485,13.29,0.032,102.3
2023-06-12T01:25:03,42.805,6.029,0.02,0.018,0.011,101.0,103.0,100.0,13.4,1505.2,319.6,-0.8,1.8,2471.513,13.29,0.026,48.0
2023-06-12T01:28:03,42.805,6.029,0.019,-0.01,-0.014,99.0,102.0,100.0,13.4,1505.2,332.1,-0.8,1.8,2471.519,13.29,0.021,117.8
2023-06-12T01:31:03,42.805,6.029,0.002,0.002,-0.019,100.0,101.0,101.0,13.3,1505.2,326.5,-0.8,1.8,2471.493,13.29,0.002,45.0
2023-06-12T01:34:03,42.805,6.029,0.031,-0.018,-0.023,100.0,102.0,101.0,13.4,1505.2,336.8,-0.7,1.8,2471.481,13.29,0.035,120.1
2023-06-12T01:37:03,42.805,6.029,0.027,0.0,-0.011,101.0,101.0,100.0,13.4,1505.2,335.5,-0.7,1.8,2471.476,13.29,0.026,90.0
2023-06-12T01:40:03,42.805,6.029,0.008,0.003,-0.015,101.0,102.0,100.0,13.3,1505.2,325.0,-0.8,1.8,2471.494,13.29,0.008,69.4
2023-06-12T01:43:03,42.805,6.029,0.018,0.009,-0.003,99.0,104.0,101.0,13.4,1505.2,329.5,-0.7,1.8,2471.487,13.29,0.02,63.4
2023-06-12T01:46:03,42.805,6.029,0.041,-0.024,-0.001,101.0,103.0,100.0,13.4,1505.2,346.8,-0.8,1.8,2471.488,13.29,0.047,120.3
2023-06-12T01:49:03,42.805,6.029,0.013,0.001,-0.013,101.0,100.0,100.0,13.4,1505.2,326.7,-0.8,1.8,2471.466,13.29,0.013,85.6
2023-06-12T01:52:03,42.805,6.029,0.049,-0.012,-0.044,101.0,101.0,100.0,13.4,1505.2,336.2,-0.8,1.8,2471.45,13.29,0.05,103.8
2023-06-12T01:55:03,42.805,6.029,0.008,-0.011,-0.026,101.0,102.0,100.0,13.4,1505.2,329.5,-0.8,1.8,2471.52,13.29,0.013,144.0
2023-06-12T01:58:03,42.805,6.029,0.04,-0.009,0.017,100.0,101.0,100.0,13.3,1505.2,339.3,-0.8,1.8,2471.529,13.29,0.041,102.7
2023-06-12T02:04:03,42.805,6.029,0.035,-0.019,-0.007,102.0,100.0,101.0,13.3,1505.2,331.9,-0.8,1.8,2471.525,13.28,0.039,118.5
2023-06-12T02:07:03,42.805,6.029,0.032,0.001,0.014,100.0,102.0,100.0,13.4,1505.2,336.6,-0.8,1.8,2471.517,13.28,0.032,88.2
2023-06-12T02:10:03,42.805,6.029,0.016,-0.015,-0.047,101.0,100.0,99.0,13.4,1505.2,336.5,-0.8,1.8,2471.49,13.28,0.021,133.1
2023-06-12T02:13:03,42.805,6.029,0.03,-0.009,-0.021,103.0,101.0,101.0,13.4,1505.2,341.5,-0.7,1.8,2471.509,13.29,0.031,106.7
2023-06-12T02:16:03,42.805,6.029,0.053,-0.004,0.0,101.0,101.0,100.0,13.4,1505.2,342.6,-0.8,1.8,2471.517,13.29,0.053,94.3
2023-06-12T02:19:03,42.805,6.029,0.024,0.007,-0.031,102.0,102.0,100.0,13.3,1505.2,343.5,-0.8,1.9,2471.513,13.29,0.025,73.7
2023-06-12T02:22:03,42.805,6.029,0.022,-0.01,0.02,100.0,101.0,101.0,13.4,1505.2,342.3,-0.7,1.8,2471.495,13.29,0.024,114.4
2023-06-12T02:25:03,42.805,6.029,0.045,-0.012,-0.011,101.0,101.0,100.0,13.4,1505.2,348.9,-0.7,1.8,2471.528,13.29,0.046,104.9
2023-06-12T02:28:03,42.805,6.029,0.024,0.027,0.02,101.0,103.0,99.0,13.4,1505.2,331.7,-0.7,1.8,2471.527,13.29,0.036,41.6
2023-06-12T02:31:03,42.805,6.029,0.056,0.0,0.008,101.0,103.0,100.0,13.4,1505.2,320.4,-0.8,1.8,2471.523,13.29,0.056,90.0
2023-06-12T02:34:03,42.805,6.029,-0.008,-0.001,-0.026,101.0,102.0,100.0,13.3,1505.2,334.4,-0.8,1.8,2471.497,13.29,0.008,262.9
2023-06-12T02:37:03,42.805,6.029,0.023,-0.004,-0.023,101.0,103.0,100.0,13.4,1505.2,339.1,-0.7,1.8,2471.506,13.29,0.023,99.9
2023-06-12T02:40:03,42.805,6.029,0.053,-0.011,-0.028,101.0,102.0,100.0,13.4,1505.2,327.6,-0.7,1.8,2471.484,13.29,0.054,101.7
2023-06-12T02:43:03,42.805,6.029,0.014,0.001,-0.02,106.0,103.0,100.0,13.3,1505.2,340.2,-0.8,1.8,2471.503,13.29,0.014,85.9
2023-06-12T02:46:03,42.805,6.029,0.043,0.011,-0.002,101.0,102.0,102.0,13.4,1505.2,328.1,-0.8,1.8,2471.472,13.29,0.044,75.7
2023-06-12T02:49:03,42.805,6.029,0.037,0.018,-0.004,101.0,102.0,101.0,13.3,1505.2,333.8,-0.7,1.8,2471.497,13.29,0.041,64.1
2023-06-12T02:52:03,42.805,6.029,0.011,0.0,-0.015,101.0,103.0,100.0,13.4,1505.2,326.0,-0.7,1.7,2471.494,13.29,0.011,90.0
2023-06-12T02:55:03,42.805,6.029,0.049,-0.004,-0.006,101.0,102.0,100.0,13.4,1505.2,323.8,-0.8,1.8,2471.523,13.29,0.049,94.7
2023-06-12T02:58:03,42.805,6.029,0.046,-0.019,-0.006,101.0,102.0,100.0,13.4,1505.2,340.1,-0.7,1.8,2471.486,13.29,0.049,112.4
2023-06-12T03:04:03,42.805,6.029,0.059,-0.025,-0.014,102.0,102.0,101.0,13.3,1505.2,329.0,-0.8,1.9,2471.494,13.28,0.064,113.0
2023-06-12T03:07:03,42.805,6.029,0.041,-0.028,-0.024,102.0,101.0,101.0,13.4,1505.2,347.9,-0.7,1.8,2471.534,13.28,0.049,124.3
2023-06-12T03:10:03,42.805,6.029,0.021,0.025,0.008,101.0,102.0,100.0,13.4,1505.2,322.7,-0.7,1.8,2471.528,13.28,0.032,40.0
2023-06-12T03:13:03,42.805,6.029,0.04,0.001,0.005,101.0,102.0,101.0,13.3,1505.2,339.9,-0.7,1.8,2471.523,13.29,0.04,88.6
2023-06-12T03:16:03,42.805,6.029,0.076,-0.034,0.009,102.0,101.0,100.0,13.3,1505.2,325.7,-0.8,1.8,2471.523,13.29,0.083,114.1
2023-06-12T03:19:03,42.805,6.029,0.023,-0.015,-0.004,101.0,102.0,100.0,13.3,1505.2,345.9,-0.8,1.8,2471.52,13.29,0.027,123.1
2023-06-12T03:22:03,42.805,6.029,0.042,-0.025,-0.014,101.0,101.0,101.0,13.3,1505.2,333.8,-0.7,1.8,2471.507,13.29,0.048,120.8
2023-06-12T03:25:03,42.805,6.029,0.029,-0.017,-0.034,99.0,102.0,101.0,13.4,1505.2,341.2,-0.8,1.8,2471.502,13.29,0.033,120.4
2023-06-12T03:28:03,42.805,6.029,0.049,-0.01,0.023,101.0,101.0,100.0,13.3,1505.2,343.4,-0.7,1.8,2471.512,13.29,0.05,101.5
2023-06-12T03:31:03,42.805,6.029,0.04,0.0,0.029,101.0,101.0,101.0,13.4,1505.2,340.3,-0.8,1.8,2471.475,13.29,0.04,90.0
2023-06-12T03:34:03,42.805,6.029,0.076,-0.037,-0.01,101.0,103.0,100.0,13.3,1505.2,337.1,-0.8,1.8,2471.488,13.29,0.084,116.0
2023-06-12T03:37:03,42.805,6.029,0.036,-0.034,-0.016,101.0,102.0,100.0,13.4,1505.2,340.9,-0.8,1.8,2471.51,13.29,0.049,133.4
2023-06-12T03:40:03,42.805,6.029,0.048,0.0,0.0,104.0,103.0,100.0,13.4,1505.2,329.4,-0.8,1.8,2471.489,13.29,0.048,90.0
2023-06-12T03:43:03,42.805,6.029,0.025,0.006,-0.015,100.0,102.0,101.0,13.4,1505.2,334.7,-0.8,1.8,2471.53,13.29,0.025,76.5
2023-06-12T03:46:03,42.805,6.029,0.035,-0.01,0.012,100.0,101.0,101.0,13.4,1505.2,334.7,-0.7,1.8,2471.498,13.29,0.036,105.9
2023-06-12T03:49:03,42.805,6.029,0.023,-0.027,-0.002,102.0,102.0,101.0,13.4,1505.2,330.8,-0.8,1.8,2471.492,13.29,0.035,139.6
2023-06-12T03:52:03,42.805,6.029,0.047,-0.028,0.005,100.0,102.0,102.0,13.4,1505.2,344.8,-0.8,1.9,2471.467,13.29,0.054,120.8
2023-06-12T03:55:03,42.805,6.029,0.06,-0.032,-0.06,102.0,105.0,101.0,13.4,1505.2,320.7,-0.8,1.8,2471.488,13.29,0.067,118.1
2023-06-12T03:58:03,42.805,6.029,0.038,0.01,0.03,103.0,101.0,100.0,13.3,1505.2,336.5,-0.7,1.8,2471.467,13.29,0.039,75.3
2023-06-12T04:04:03,42.805,6.029,0.028,-0.037,-0.028,102.0,102.0,102.0,13.4,1505.2,342.8,-0.8,1.8,2471.56,13.28,0.046,142.9
2023-06-12T04:07:03,42.805,6.029,0.042,0.003,0.02,102.0,100.0,101.0,13.4,1505.2,336.5,-0.8,1.8,2471.56,13.28,0.042,85.9
2023-06-12T04:10:03,42.805,6.029,0.022,-0.008,-0.02,101.0,102.0,101.0,13.4,1505.2,346.8,-0.8,1.8,2471.543,13.28,0.023,110.0
2023-06-12T04:13:03,42.805,6.029,0.052,-0.011,-0.004,101.0,101.0,100.0,13.3,1505.2,348.0,-0.8,1.8,2471.518,13.28,0.053,101.9
2023-06-12T04:16:03,42.805,6.029,0.038,0.007,0.014,100.0,101.0,100.0,13.4,1505.2,345.7,-0.8,1.8,2471.501,13.29,0.038,79.6
2023-06-12T04:19:03,42.805,6.029,0.044,-0.01,-0.019,101.0,102.0,100.0,13.3,1505.2,329.2,-0.7,1.8,2471.5,13.29,0.045,102.8
2023-06-12T04:22:03,42.805,6.029,0.044,-0.008,0.011,101.0,101.0,101.0,13.4,1505.2,330.3,-0.8,1.8,2471.466,13.29,0.044,100.3
2023-06-12T04:25:03,42.805,6.029,0.004,-0.003,-0.051,101.0,102.0,100.0,13.4,1505.2,338.8,-0.8,1.8,2471.454,13.29,0.005,126.9
2023-06-12T04:28:03,42.805,6.029,0.036,-0.01,-0.018,101.0,102.0,101.0,13.4,1505.2,329.0,-0.7,1.8,2471.467,13.29,0.037,105.5
2023-06-12T04:31:03,42.805,6.029,0.042,-0.001,0.011,100.0,101.0,101.0,13.4,1505.2,325.4,-0.8,1.8,2471.457,13.29,0.042,91.4
2023-06-12T04:34:03,42.805,6.029,0.003,0.019,0.008,101.0,101.0,102.0,13.4,1505.2,330.1,-0.7,1.8,2471.505,13.29,0.019,9.0
2023-06-12T04:37:03,42.805,6.029,0.016,0.0,0.0,101.0,102.0,100.0,13.4,1505.2,348.4,-0.8,1.8,2471.482,13.29,0.016,90.0
2023-06-12T04:40:03,42.805,6.029,0.018,-0.005,-0.026,100.0,102.0,100.0,13.4,1505.2,341.2,-0.8,1.8,2471.476,13.29,0.018,105.5
2023-06-12T04:43:03,42.805,6.029,0.038,-0.023,-0.003,101.0,101.0,100.0,13.4,1505.2,336.0,-0.7,1.8,2471.478,13.29,0.044,121.2
2023-06-12T04:46:03,42.805,6.029,0.025,-0.028,-0.023,101.0,103.0,101.0,13.4,1505.2,330.0,-0.8,1.8,2471.457,13.29,0.037,138.2
2023-06-12T04:49:03,42.805,6.029,0.033,-0.024,0.002,100.0,102.0,100.0,13.4,1505.2,344.2,-0.7,1.8,2471.471,13.29,0.04,126.0
2023-06-12T04:52:03,42.805,6.029,0.027,-0.015,-0.032,101.0,101.0,100.0,13.3,1505.2,322.9,-0.8,1.8,2471.464,13.29,0.03,119.1
2023-06-12T04:55:03,42.805,6.029,0.056,-0.013,0.006,101.0,101.0,100.0,13.4,1505.2,336.1,-0.7,1.8,2471.449,13.29,0.057,103.1
2023-06-12T04:58:03,42.805,6.029,0.024,-0.015,-0.003,100.0,102.0,101.0,13.4,1505.2,349.5,-0.7,1.8,2471.466,13.29,0.028,122.0
2023-06-12T05:04:03,42.805,6.029,0.038,-0.013,0.002,100.0,100.0,101.0,13.3,1505.2,329.2,-0.7,1.8,2471.482,13.28,0.04,108.9
2023-06-12T05:07:03,42.805,6.029,0.058,-0.025,-0.03,101.0,101.0,100.0,13.4,1505.2,330.0,-0.8,1.8,2471.472,13.28,0.063,113.3
2023-06-12T05:10:03,42.805,6.029,0.034,-0.023,-0.04,101.0,102.0,100.0,13.4,1505.2,340.6,-0.8,1.8,2471.469,13.28,0.041,124.1
2023-06-12T05:13:03,42.805,6.029,0.04,-0.011,-0.013,101.0,101.0,100.0,13.4,1505.2,342.2,-0.8,1.8,2471.465,13.28,0.041,105.4
2023-06-12T05:16:03,42.805,6.029,0.028,-0.01,-0.012,101.0,102.0,100.0,13.4,1505.2,338.4,-0.8,1.8,2471.447,13.29,0.029,109.6
2023-06-12T05:19:03,42.805,6.029,0.046,-0.005,-0.002,101.0,101.0,100.0,13.4,1505.2,322.7,-0.8,1.8,2471.468,13.29,0.046,96.2
2023-06-12T05:22:03,42.805,6.029,0.017,-0.016,-0.008,100.0,101.0,101.0,13.3,1505.2,336.2,-0.8,1.8,2471.471,13.29,0.023,133.3
2023-06-12T05:25:03,42.805,6.029,0.035,-0.005,-0.026,100.0,101.0,101.0,13.3,1505.2,326.5,-0.8,1.8,2471.453,13.29,0.035,98.1
2023-06-12T05:28:03,42.805,6.029,0.024,-0.002,0.005,101.0,100.0,101.0,13.4,1505.2,336.8,-0.8,1.8,2471.422,13.29,0.024,94.8
2023-06-12T05:31:03,42.805,6.029,0.064,-0.01,0.015,101.0,101.0,101.0,13.4,1505.2,344.2,-0.8,1.8,2471.449,13.29,0.064,98.9
2023-06-12T05:34:03,42.805,6.029,0.027,-0.003,0.016,101.0,102.0,100.0,13.4,1505.2,350.9,-0.8,1.8,2471.439,13.29,0.027,96.3
2023-06-12T05:37:03,42.805,6.029,0.024,-0.026,-0.006,101.0,102.0,100.0,13.4,1505.2,343.4,-0.8,1.8,2471.4,13.29,0.035,137.3
2023-06-12T05:40:03,42.805,6.029,0.043,0.0,-0.009,100.0,101.0,101.0,13.3,1505.2,328.8,-0.8,1.8,2471.488,13.29,0.043,90.0
2023-06-12T05:43:03,42.805,6.029,0.01,0.035,0.01,101.0,101.0,101.0,13.4,1505.2,331.9,-0.8,1.8,2471.437,13.29,0.036,15.9
2023-06-12T05:46:03,42.805,6.029,0.016,-0.017,-0.016,101.0,101.0,100.0,13.3,1505.2,349.7,-0.8,1.8,2471.418,13.29,0.023,136.7
2023-06-12T05:49:03,42.805,6.029,0.06,-0.001,0.001,101.0,102.0,101.0,13.4,1505.2,321.4,-0.8,1.8,2471.425,13.29,0.06,91.0
2023-06-12T05:52:03,42.805,6.029,0.057,-0.005,-0.006,101.0,101.0,100.0,13.4,1505.2,341.2,-0.8,1.8,2471.443,13.29,0.057,95.0
2023-06-12T05:55:03,42.805,6.029,0.012,-0.002,-0.04,101.0,101.0,100.0,13.4,1505.2,328.1,-0.8,1.8,2471.378,13.29,0.012,99.5
2023-06-12T05:58:03,42.805,6.029,0.008,-0.014,-0.016,101.0,102.0,101.0,13.4,1505.2,346.4,-0.8,1.8,2471.448,13.29,0.016,150.3
2023-06-12T06:04:03,42.805,6.029,0.045,0.002,-0.001,101.0,103.0,100.0,13.4,1505.2,332.1,-0.8,1.8,2471.464,13.28,0.045,87.5
2023-06-12T06:07:03,42.805,6.029,0.03,0.015,-0.014,101.0,103.0,99.0,13.4,1505.2,328.4,-0.8,1.8,2471.449,13.28,0.033,63.4
2023-06-12T06:10:03,42.805,6.029,0.003,-0.007,0.002,101.0,102.0,101.0,13.4,1505.2,349.3,-0.7,1.8,2471.494,13.28,0.007,156.8
2023-06-12T06:13:03,42.805,6.029,0.051,0.006,-0.008,101.0,100.0,101.0,13.3,1505.2,321.0,-0.8,1.8,2471.447,13.29,0.051,83.3
2023-06-12T06:16:03,42.805,6.029,0.033,0.005,-0.023,101.0,101.0,100.0,13.3,1505.2,328.2,-0.8,1.8,2471.404,13.29,0.033,81.4
2023-06-12T06:19:03,42.805,6.029,0.032,-0.024,-0.025,101.0,101.0,101.0,13.3,1505.2,329.3,-0.7,1.8,2471.447,13.29,0.04,126.9
2023-06-12T06:22:03,42.805,6.029,0.038,-0.026,0.004,101.0,101.0,100.0,13.4,1505.2,349.5,-0.8,1.8,2471.408,13.29,0.046,124.4
2023-06-12T06:25:03,42.805,6.029,0.032,0.014,-0.008,101.0,102.0,101.0,13.4,1505.2,322.5,-0.7,1.8,2471.403,13.29,0.034,66.4
2023-06-12T06:28:03,42.805,6.029,0.03,-0.007,-0.007,101.0,101.0,100.0,13.4,1505.2,339.7,-0.8,1.8,2471.413,13.29,0.03,103.1
2023-06-12T06:31:03,42.805,6.029,0.013,0.021,-0.001,102.0,101.0,100.0,13.4,1505.2,349.3,-0.8,1.9,2471.412,13.29,0.024,31.8
2023-06-12T06:34:03,42.805,6.029,0.044,-0.01,-0.015,101.0,102.0,100.0,13.4,1505.2,329.8,-0.7,1.8,2471.401,13.29,0.045,102.8
2023-06-12T06:37:03,42.805,6.029,0.003,-0.01,-0.047,101.0,101.0,101.0,13.3,1505.2,330.9,-0.8,1.8,2471.378,13.29,0.01,163.3
2023-06-12T06:40:03,42.805,6.029,0.026,-0.023,-0.02,101.0,102.0,101.0,13.4,1505.2,349.9,-0.8,1.8,2471.419,13.29,0.034,131.5
2023-06-12T06:43:03,42.805,6.029,0.022,0.006,0.002,101.0,101.0,100.0,13.4,1505.2,324.2,-0.8,1.8,2471.383,13.29,0.022,74.7
2023-06-12T06:46:03,42.805,6.029,0.041,-0.009,-0.016,101.0,101.0,100.0,13.4,1505.2,333.4,-0.8,1.8,2471.411,13.29,0.041,102.4
2023-06-12T06:49:03,42.805,6.029,0.039,-0.024,-0.02,101.0,101.0,100.0,13.4,1505.2,339.7,-0.7,1.8,2471.401,13.29,0.045,121.6
2023-06-12T06:52:03,42.805,6.029,0.045,-0.041,-0.047,103.0,101.0,100.0,13.4,1505.2,343.6,-0.7,1.8,2471.376,13.29,0.06,132.3
2023-06-12T06:55:03,42.805,6.029,0.026,0.0,0.002,100.0,102.0,100.0,13.3,1505.2,329.2,-0.8,1.8,2471.427,13.29,0.026,90.0
2023-06-12T06:58:03,42.805,6.029,0.01,-0.004,-0.027,100.0,101.0,101.0,13.4,1505.2,332.4,-0.8,1.9,2471.384,13.29,0.01,111.8
2023-06-12T07:04:03,42.805,6.029,0.024,-0.028,-0.01,101.0,100.0,101.0,13.3,1505.2,333.8,-0.8,1.8,2471.417,13.28,0.036,139.4
2023-06-12T07:07:03,42.805,6.029,-0.002,0.034,0.046,100.0,101.0,101.0,13.3,1505.2,339.7,-0.8,1.8,2471.39,13.28,0.034,356.6
2023-06-12T07:10:03,42.805,6.029,0.045,-0.007,0.0,101.0,101.0,101.0,13.4,1505.2,340.0,-0.8,1.8,2471.428,13.28,0.045,98.8
2023-06-12T07:13:03,42.805,6.029,0.04,-0.011,-0.019,100.0,104.0,100.0,13.4,1505.2,319.0,-0.8,1.8,2471.417,13.28,0.041,105.4
2023-06-12T07:16:03,42.805,6.029,0.054,0.024,0.011,102.0,101.0,101.0,13.3,1505.2,322.3,-0.8,1.8,2471.357,13.29,0.059,66.0
2023-06-12T07:19:03,42.805,6.029,0.047,-0.022,-0.035,102.0,102.0,100.0,13.4,1505.2,327.6,-0.8,1.9,2471.379,13.29,0.051,115.1
2023-06-12T07:22:03,42.805,6.029,0.056,-0.022,-0.006,102.0,101.0,101.0,13.4,1505.2,349.3,-0.7,1.9,2471.333,13.29,0.06,111.4
2023-06-12T07:25:03,42.805,6.029,0.023,-0.017,-0.043,101.0,101.0,100.0,13.4,1505.2,337.6,-0.8,1.8,2471.384,13.29,0.028,126.5
2023-06-12T07:28:03,42.805,6.029,0.022,0.003,-0.019,101.0,101.0,100.0,13.4,1505.2,332.3,-0.8,1.8,2471.351,13.29,0.022,82.2
2023-06-12T07:31:03,42.805,6.029,0.017,-0.007,0.002,101.0,101.0,100.0,13.4,1505.2,334.9,-0.8,1.8,2471.343,13.29,0.018,112.4
2023-06-12T07:34:03,42.805,6.029,0.017,0.0,-0.01,101.0,101.0,100.0,13.4,1505.2,337.4,-0.8,1.8,2471.351,13.29,0.017,90.0
2023-06-12T07:37:03,42.805,6.029,0.036,-0.022,-0.033,101.0,102.0,100.0,13.3,1505.2,322.2,-0.8,1.9,2471.29,13.29,0.042,121.4
2023-06-12T07:40:03,42.805,6.029,0.052,-0.01,-0.002,101.0,101.0,101.0,13.4,1505.2,329.4,-0.7,1.8,2471.367,13.29,0.052,100.9
2023-06-12T07:43:03,42.805,6.029,0.023,-0.014,-0.006,101.0,101.0,100.0,13.3,1505.2,339.5,-0.8,1.8,2471.393,13.29,0.026,121.3
2023-06-12T07:46:03,42.805,6.029,0.003,0.016,-0.01,100.0,103.0,100.0,13.4,1505.2,330.9,-0.7,1.8,2471.364,13.29,0.016,10.6
2023-06-12T07:49:03,42.805,6.029,0.055,-0.009,-0.018,101.0,100.0,102.0,13.4,1505.2,322.2,-0.8,1.8,2471.328,13.29,0.055,99.3
2023-06-12T07:52:03,42.805,6.029,-0.001,-0.012,-0.013,100.0,101.0,100.0,13.3,1505.2,330.7,-0.7,1.9,2471.355,13.29,0.012,184.8
2023-06-12T07:55:03,42.805,6.029,0.061,-0.004,-0.004,101.0,101.0,101.0,13.3,1505.2,329.8,-0.8,1.8,2471.34,13.29,0.061,93.7
2023-06-12T07:58:03,42.805,6.029,0.035,0.001,-0.019,101.0,101.0,100.0,13.4,1505.2,332.4,-0.7,1.8,2471.396,13.29,0.035,88.4
2023-06-12T08:01:03,42.805,6.029,0.036,-0.027,-0.033,101.0,100.0,100.0,13.4,1505.2,334.9,-0.8,1.8,2471.305,13.29,0.045,126.9
2023-06-12T08:04:03,42.805,6.029,0.052,-0.024,-0.002,100.0,101.0,101.0,13.3,1505.2,334.2,-0.8,1.8,2471.323,13.29,0.057,114.8
2023-06-12T08:07:03,42.805,6.029,0.046,-0.001,-0.011,100.0,101.0,101.0,13.4,1505.2,341.2,-0.8,1.8,2471.362,13.29,0.046,91.2
2023-06-12T08:10:03,42.805,6.029,0.038,-0.007,-0.024,101.0,102.0,100.0,13.4,1505.2,328.8,-0.8,1.8,2471.343,13.29,0.038,100.4
2023-06-12T08:13:03,42.805,6.029,0.058,-0.001,0.027,101.0,101.0,100.0,13.4,1505.2,327.9,-0.8,1.8,2471.324,13.29,0.058,91.0
2023-06-12T08:16:03,42.805,6.029,0.027,-0.02,-0.031,100.0,102.0,100.0,13.4,1505.2,335.4,-0.8,1.8,2471.38,13.29,0.033,126.5
2023-06-12T08:19:03,42.805,6.029,0.015,0.017,0.004,100.0,102.0,100.0,13.4,1505.2,327.5,-0.8,1.8,2471.345,13.29,0.022,41.4
2023-06-12T08:22:03,42.805,6.029,0.027,-0.029,-0.045,101.0,101.0,100.0,13.4,1505.2,322.5,-0.7,1.8,2471.331,13.29,0.039,137.0
2023-06-12T08:25:03,42.805,6.029,0.049,-0.053,-0.063,101.0,102.0,100.0,13.3,1505.2,335.2,-0.8,1.8,2471.317,13.29,0.072,137.2
2023-06-12T08:28:03,42.805,6.029,0.028,-0.027,-0.04,100.0,101.0,100.0,13.4,1505.2,341.1,-0.8,1.8,2471.331,13.29,0.038,134.0
2023-06-12T08:31:03,42.805,6.029,0.037,-0.007,-0.006,101.0,102.0,101.0,13.3,1505.2,338.6,-0.8,1.8,2471.356,13.29,0.037,100.7
2023-06-12T08:34:03,42.805,6.029,0.065,-0.008,0.005,103.0,99.0,101.0,13.4,1505.2,328.7,-0.7,1.8,2471.314,13.29,0.065,97.0
2023-06-12T08:37:03,42.805,6.029,0.031,-0.027,-0.023,101.0,99.0,101.0,13.4,1505.2,335.7,-0.8,1.8,2471.352,13.29,0.041,131.1
2023-06-12T08:40:03,42.805,6.029,0.015,-0.012,-0.037,100.0,103.0,101.0,13.4,1505.2,337.1,-0.8,1.8,2471.309,13.29,0.019,128.7
2023-06-12T08:43:03,42.805,6.029,0.012,-0.019,-0.01,102.0,101.0,100.0,13.4,1505.2,325.0,-0.8,1.8,2471.328,13.29,0.022,147.7
2023-06-12T08:46:03,42.805,6.029,0.03,-0.017,-0.009,101.0,101.0,100.0,13.3,1505.2,337.5,-0.8,1.8,2471.355,13.29,0.034,119.5
2023-06-12T08:49:03,42.805,6.029,0.022,-0.001,-0.01,102.0,103.0,100.0,13.4,1505.2,330.0,-0.8,1.8,2471.307,13.29,0.022,92.6
2023-06-12T08:52:03,42.805,6.029,0.019,-0.003,0.009,101.0,100.0,101.0,13.3,1505.2,329.3,-0.7,1.8,2471.301,13.29,0.019,99.0
2023-06-12T08:55:03,42.805,6.029,0.042,-0.019,-0.028,101.0,102.0,101.0,13.3,1505.2,330.0,-0.8,1.8,2471.341,13.29,0.046,114.3
2023-06-12T08:58:03,42.805,6.029,0.011,0.029,-0.004,102.0,100.0,101.0,13.4,1505.2,330.3,-0.8,1.8,2471.333,13.29,0.031,20.8
2023-06-12T09:04:03,42.805,6.029,0.017,0.018,-0.009,101.0,102.0,100.0,13.3,1505.2,350.7,-0.8,1.8,2471.37,13.28,0.024,43.4
2023-06-12T09:07:03,42.805,6.029,0.038,-0.013,-0.012,101.0,102.0,100.0,13.4,1505.2,333.0,-0.8,1.8,2471.337,13.28,0.04,108.9
2023-06-12T09:10:03,42.805,6.029,0.01,-0.016,-0.04,101.0,101.0,100.0,13.4,1505.2,339.3,-0.8,1.8,2471.357,13.28,0.018,148.0
2023-06-12T09:13:03,42.805,6.029,0.025,-0.01,-0.004,100.0,103.0,101.0,13.4,1505.2,340.7,-0.8,1.8,2471.335,13.28,0.026,111.8
2023-06-12T09:16:03,42.805,6.029,0.021,0.028,0.056,102.0,101.0,101.0,13.4,1505.2,349.1,-0.8,1.8,2471.355,13.29,0.035,36.9
2023-06-12T09:19:03,42.805,6.029,0.034,-0.009,0.004,101.0,102.0,101.0,13.4,1505.2,328.1,-0.7,1.8,2471.321,13.29,0.035,104.8
2023-06-12T09:22:03,42.805,6.029,0.028,0.002,-0.04,101.0,102.0,100.0,13.3,1505.2,329.4,-0.8,1.8,2471.33,13.29,0.028,85.9
2023-06-12T09:25:03,42.805,6.029,0.036,0.0,-0.017,100.0,102.0,100.0,13.4,1505.2,329.2,-0.7,1.8,2471.324,13.29,0.036,90.0
2023-06-12T09:28:03,42.805,6.029,0.07,0.005,0.045,101.0,101.0,100.0,13.3,1505.2,338.0,-0.8,1.8,2471.294,13.29,0.07,85.9
2023-06-12T09:31:03,42.805,6.029,0.042,-0.002,0.0,101.0,101.0,100.0,13.4,1505.2,338.0,-0.8,1.8,2471.313,13.29,0.042,92.7
2023-06-12T09:34:03,42.805,6.029,0.018,-0.006,0.002,102.0,101.0,101.0,13.4,1505.2,329.6,-0.8,1.8,2471.355,13.29,0.018,108.4
2023-06-12T09:37:03,42.805,6.029,0.002,-0.011,-0.054,102.0,105.0,99.0,13.4,1505.2,328.5,-0.7,1.8,2471.349,13.29,0.011,169.7
2023-06-12T09:40:03,42.805,6.029,0.042,-0.024,-0.037,100.0,101.0,100.0,13.4,1505.2,331.5,-0.8,1.8,2471.311,13.29,0.048,119.7
2023-06-12T09:43:03,42.805,6.029,0.027,-0.013,-0.002,101.0,102.0,101.0,13.3,1505.2,346.7,-0.8,1.8,2471.315,13.29,0.029,115.7
2023-06-12T09:46:03,42.805,6.029,0.016,0.006,0.0,100.0,102.0,100.0,13.4,1505.2,334.4,-0.8,1.8,2471.318,13.29,0.017,69.4
2023-06-12T09:49:03,42.805,6.029,0.057,-0.033,-0.002,101.0,101.0,100.0,13.4,1505.2,343.4,-0.8,1.8,2471.329,13.29,0.065,120.1
2023-06-12T09:52:03,42.805,6.029,0.059,-0.025,-0.01,103.0,101.0,102.0,13.4,1505.2,346.2,-0.7,1.8,2471.317,13.29,0.064,113.0
2023-06-12T09:55:03,42.805,6.029,0.044,-0.005,-0.021,101.0,101.0,101.0,13.3,1505.2,322.0,-0.7,1.8,2471.332,13.29,0.044,96.5